Location: Aix-en-Ergny
(50.5839°N, 1.9996°E)
Time: 22:53:53
(UTC+00:00)

Meteor 1-4 Rocket - Pass Details

Date: 23 October 2019
Orbit: 450 x 503 km, 81.2° (Epoch: 21 November)

Event Time Altitude Azimuth Distance (km) Brightness Sun altitude
Exits shadow 05:24:46 15° 289° (WNW) 1,307 4.1 -10.5°
Maximum altitude 05:25:06 15° 296° (WNW) 1,300 4.2 -10.5°
Drops below altitude 10° 05:27:14 10° 334° (NNW) 1,596 4.9 -10.2°
Sets 05:30:00 0° 358° (N) 2,474 6.1 -9.7°
